Location: Morisset
(33.1080°S, 151.4871°E)
Time: 08:32:36
(UTC+00:00)

Yuri Rocket - Pass Details

Date: 29 October 2020
Orbit: 568 x 1914 km, 28.2° (Epoch: 27 November)

Event Time Altitude Azimuth Distance (km) Brightness Sun altitude
Exits shadow 18:27:30 - 278° (W) 2,998 5.9 -6.6°
Reaches altitude 10° 18:28:24 10° 280° (W) 2,661 5.6 -6.4°
Maximum altitude 18:34:19 50° 353° (N) 956 3.9 -5.3°
Drops below altitude 10° 18:38:51 10° 69° (ENE) 2,039 6.5 -4.4°
Sets 18:41:00 0° 74° (ENE) 2,861 7.5 -4.0°
